Time,TemperatureF,DewpointF,PressureIn,WindDirection,WindDirectionDegrees,WindSpeedMPH,WindSpeedGustMPH,Humidity,HourlyPrecipIn,Conditions,Clouds,dailyrainin,SoftwareType,DateUTC
2013-10-05 00:00:00,70.4,67.3,29.98,ESE,123,2.4,5.9,90,0.00,,OVC041,0.02,VWS V14.01,2013-10-05 04:00:00,
2013-10-05 00:01:00,69.4,66.6,29.97,SE,135,0.0,1.2,91,0.00,,SCT046,0.00,VWS V14.01,2013-10-05 04:01:00,
2013-10-05 00:02:00,69.4,66.6,29.97,SE,135,0.0,1.2,91,0.00,,SCT046,0.00,VWS V14.01,2013-10-05 04:02:00,
2013-10-05 00:03:00,69.4,66.6,29.97,SE,135,0.0,1.2,91,0.00,,SCT046,0.00,VWS V14.01,2013-10-05 04:03:00,
2013-10-05 00:08:00,69.4,66.6,29.96,SE,135,0.0,1.2,91,0.00,,SCT046,0.00,VWS V14.01,2013-10-05 04:08:00,
2013-10-05 00:10:00,70.3,67.2,29.98,SE,144,2.4,8.3,90,0.00,,OVC041,0.02,VWS V14.01,2013-10-05 04:10:00,
2013-10-05 00:13:00,69.3,66.8,29.97,SE,135,1.2,1.2,92,0.00,,SCT046,0.00,VWS V14.01,2013-10-05 04:13:00,
2013-10-05 00:18:00,69.1,66.7,29.97,SE,135,0.0,1.2,92,0.00,,SCT046,0.00,VWS V14.01,2013-10-05 04:18:00,
2013-10-05 00:20:00,70.1,67.3,29.98,SE,135,1.2,9.4,91,0.00,,OVC041,0.02,VWS V14.01,2013-10-05 04:20:00,
2013-10-05 00:23:00,69.1,66.7,29.97,SE,135,5.9,5.9,92,0.00,,SCT046,0.00,VWS V14.01,2013-10-05 04:23:00,
2013-10-05 00:28:00,68.9,66.5,29.96,SE,135,2.4,5.9,92,0.00,,SCT046,0.00,VWS V14.01,2013-10-05 04:28:00,
2013-10-05 00:30:00,69.9,67.1,29.98,SE,135,0.0,5.9,91,0.00,,OVC041,0.02,VWS V14.01,2013-10-05 04:30:00,
2013-10-05 00:33:00,68.9,66.5,29.96,SE,145,4.7,5.9,92,0.00,,SCT046,0.00,VWS V14.01,2013-10-05 04:33:00,
2013-10-05 00:38:00,68.9,66.8,29.96,SE,140,0.0,5.9,93,0.00,,SCT046,0.00,VWS V14.01,2013-10-05 04:38:00,
2013-10-05 00:40:00,69.8,67.0,29.97,SE,135,0.0,2.4,91,0.00,,OVC041,0.02,VWS V14.01,2013-10-05 04:40:00,
2013-10-05 00:43:00,68.9,66.8,29.96,SE,141,1.2,5.9,93,0.00,,FEW046,0.00,VWS V14.01,2013-10-05 04:43:00,
2013-10-05 00:48:00,68.9,66.8,29.96,SE,140,0.0,5.9,93,0.00,,FEW046,0.00,VWS V14.01,2013-10-05 04:48:00,
2013-10-05 00:50:00,69.6,66.8,29.97,SE,135,0.0,1.2,91,0.00,,OVC041,0.02,VWS V14.01,2013-10-05 04:50:00,
2013-10-05 00:53:00,68.9,66.8,29.97,SE,141,0.0,4.7,93,0.00,,FEW046,0.00,VWS V14.01,2013-10-05 04:53:00,
2013-10-05 00:58:00,68.9,66.8,29.97,SE,141,0.0,4.7,93,0.00,,FEW046,0.00,VWS V14.01,2013-10-05 04:58:00,
2013-10-05 01:00:00,69.6,66.8,29.97,SE,135,0.0,1.2,91,0.00,,OVC041,0.02,VWS V14.01,2013-10-05 05:00:00,
2013-10-05 01:03:00,68.9,66.8,29.96,SE,141,0.0,1.2,93,0.00,,FEW046,0.00,VWS V14.01,2013-10-05 05:03:00,
2013-10-05 01:08:00,68.8,66.7,29.96,SE,141,0.0,1.2,93,0.00,,FEW046,0.00,VWS V14.01,2013-10-05 05:08:00,
2013-10-05 01:10:00,69.3,66.8,29.97,SE,135,0.0,1.2,92,0.00,,OVC041,0.00,VWS V14.01,2013-10-05 05:10:00,
2013-10-05 01:13:00,68.8,67.0,29.96,SE,141,0.0,2.4,94,0.00,,FEW046,0.00,VWS V14.01,2013-10-05 05:13:00,
2013-10-05 01:18:00,68.6,66.8,29.96,SE,141,0.0,2.4,94,0.00,,FEW046,0.00,VWS V14.01,2013-10-05 05:18:00,
2013-10-05 01:20:00,69.1,66.7,29.97,SE,135,0.0,1.2,92,0.00,,OVC041,0.00,VWS V14.01,2013-10-05 05:20:00,
2013-10-05 01:23:00,68.6,66.8,29.97,SE,141,0.0,2.4,94,0.00,,FEW046,0.00,VWS V14.01,2013-10-05 05:23:00,
2013-10-05 01:28:00,68.6,66.8,29.97,SE,142,2.4,5.9,94,0.00,,FEW046,0.00,VWS V14.01,2013-10-05 05:28:00,
2013-10-05 01:30:00,68.9,66.5,29.96,SE,135,0.0,5.9,92,0.00,,OVC041,0.00,VWS V14.01,2013-10-05 05:30:00,
2013-10-05 01:33:00,68.6,66.8,29.97,SE,142,4.7,4.7,94,0.00,,FEW046,0.00,VWS V14.01,2013-10-05 05:33:00,
2013-10-05 01:38:00,68.8,67.0,29.97,SSE,150,0.0,4.7,94,0.00,,FEW046,0.00,VWS V14.01,2013-10-05 05:38:00,
2013-10-05 01:40:00,68.9,66.8,29.96,SE,140,1.2,5.9,93,0.00,,OVC041,0.00,VWS V14.01,2013-10-05 05:40:00,
2013-10-05 01:43:00,68.8,67.0,29.97,SSE,150,0.0,4.7,94,0.00,,CLR,0.00,VWS V14.01,2013-10-05 05:43:00,
2013-10-05 01:48:00,68.8,67.0,29.97,SSE,151,0.0,4.7,94,0.00,,CLR,0.00,VWS V14.01,2013-10-05 05:48:00,
2013-10-05 01:50:00,68.9,66.8,29.96,SE,141,0.0,5.9,93,0.00,,OVC041,0.00,VWS V14.01,2013-10-05 05:50:00,
2013-10-05 01:53:00,68.8,67.3,29.96,SSE,151,0.0,1.2,95,0.00,,CLR,0.00,VWS V14.01,2013-10-05 05:53:00,
2013-10-05 01:58:00,68.6,67.1,29.96,SSE,151,0.0,1.2,95,0.00,,CLR,0.00,VWS V14.01,2013-10-05 05:58:00,
2013-10-05 02:00:00,68.9,66.8,29.96,SE,141,0.0,4.7,93,0.00,,OVC041,0.00,VWS V14.01,2013-10-05 06:00:00,
2013-10-05 02:03:00,68.6,67.1,29.96,SSE,151,0.0,1.2,95,0.00,,CLR,0.00,VWS V14.01,2013-10-05 06:03:00,
2013-10-05 02:08:00,68.4,66.9,29.96,SSE,151,0.0,1.2,95,0.00,,CLR,0.00,VWS V14.01,2013-10-05 06:08:00,
2013-10-05 02:10:00,68.8,67.0,29.97,SE,141,0.0,1.2,94,0.00,,OVC041,0.00,VWS V14.01,2013-10-05 06:10:00,
2013-10-05 02:13:00,68.3,66.8,29.97,SSE,151,0.0,4.7,95,0.00,,CLR,0.00,VWS V14.01,2013-10-05 06:13:00,
2013-10-05 02:18:00,68.3,66.8,29.97,SSE,151,0.0,4.7,95,0.00,,CLR,0.00,VWS V14.01,2013-10-05 06:18:00,
2013-10-05 02:20:00,68.6,66.8,29.97,SE,141,0.0,2.4,94,0.00,,OVC041,0.00,VWS V14.01,2013-10-05 06:20:00,
2013-10-05 02:23:00,68.1,66.6,29.97,SSE,151,0.0,2.4,95,0.00,,CLR,0.00,VWS V14.01,2013-10-05 06:23:00,
2013-10-05 02:28:00,68.1,66.6,29.96,SSE,151,0.0,4.7,95,0.00,,CLR,0.00,VWS V14.01,2013-10-05 06:28:00,
2013-10-05 02:30:00,68.6,66.8,29.97,SE,142,0.0,5.9,94,0.00,,OVC041,0.00,VWS V14.01,2013-10-05 06:30:00,
2013-10-05 02:33:00,68.1,66.6,29.96,SSE,147,0.0,4.7,95,0.00,,CLR,0.00,VWS V14.01,2013-10-05 06:33:00,
2013-10-05 02:38:00,68.1,66.6,29.96,SE,146,0.0,5.9,95,0.00,,CLR,0.00,VWS V14.01,2013-10-05 06:38:00,
2013-10-05 02:40:00,68.8,67.0,29.97,SSE,150,1.2,4.7,94,0.00,,OVC041,0.00,VWS V14.01,2013-10-05 06:40:00,
2013-10-05 02:43:00,68.1,66.9,29.96,SE,146,2.4,4.7,96,0.00,,CLR,0.00,VWS V14.01,2013-10-05 06:43:00,
2013-10-05 02:48:00,68.1,66.9,29.96,SE,146,0.0,4.7,96,0.00,,CLR,0.00,VWS V14.01,2013-10-05 06:48:00,
2013-10-05 02:50:00,68.8,67.3,29.97,SSE,151,0.0,4.7,95,0.00,,OVC041,0.00,VWS V14.01,2013-10-05 06:50:00,
2013-10-05 02:53:00,68.1,66.9,29.96,SE,146,0.0,2.4,96,0.00,,CLR,0.00,VWS V14.01,2013-10-05 06:53:00,
2013-10-05 02:58:00,68.1,66.9,29.96,SSE,147,0.0,4.7,96,0.00,,CLR,0.00,VWS V14.01,2013-10-05 06:58:00,
2013-10-05 03:00:00,68.6,67.1,29.97,SSE,151,0.0,1.2,95,0.00,,OVC041,0.00,VWS V14.01,2013-10-05 07:00:00,
2013-10-05 03:03:00,68.1,66.9,29.96,SSE,148,0.0,4.7,96,0.00,,CLR,0.00,VWS V14.01,2013-10-05 07:03:00,
2013-10-05 03:08:00,67.9,66.7,29.96,SSE,156,2.4,5.9,96,0.00,,CLR,0.00,VWS V14.01,2013-10-05 07:08:00,
2013-10-05 03:10:00,68.4,66.9,29.96,SSE,151,0.0,1.2,95,0.00,,OVC041,0.00,VWS V14.01,2013-10-05 07:10:00,
2013-10-05 03:13:00,67.9,66.7,29.95,SSE,157,0.0,2.4,96,0.00,,CLR,0.00,VWS V14.01,2013-10-05 07:13:00,
2013-10-05 03:18:00,67.9,66.7,29.95,SSE,157,0.0,2.4,96,0.00,,CLR,0.00,VWS V14.01,2013-10-05 07:18:00,
2013-10-05 03:20:00,68.3,66.8,29.97,SSE,151,0.0,4.7,95,0.00,,OVC041,0.00,VWS V14.01,2013-10-05 07:20:00,
2013-10-05 03:23:00,67.9,66.7,29.95,SSE,157,0.0,1.2,96,0.01,,CLR,0.01,VWS V14.01,2013-10-05 07:23:00,
2013-10-05 03:28:00,67.8,66.6,29.95,SSE,157,0.0,1.2,96,0.01,,CLR,0.01,VWS V14.01,2013-10-05 07:28:00,
2013-10-05 03:30:00,68.1,66.6,29.96,SSE,151,0.0,4.7,95,0.00,,OVC041,0.00,VWS V14.01,2013-10-05 07:30:00,
2013-10-05 03:33:00,67.8,66.6,29.95,SSE,155,0.0,5.9,96,0.01,,CLR,0.01,VWS V14.01,2013-10-05 07:33:00,
2013-10-05 03:38:00,67.8,66.6,29.95,SSE,155,0.0,5.9,96,0.01,,CLR,0.01,VWS V14.01,2013-10-05 07:38:00,
2013-10-05 03:40:00,68.1,66.6,29.96,SE,146,2.4,5.9,95,0.00,,OVC041,0.00,VWS V14.01,2013-10-05 07:40:00,
2013-10-05 03:43:00,67.8,66.9,29.95,SSE,155,1.2,1.2,97,0.01,,CLR,0.01,VWS V14.01,2013-10-05 07:43:00,
2013-10-05 03:48:00,67.8,66.9,29.95,SSE,155,0.0,1.2,97,0.01,,CLR,0.01,VWS V14.01,2013-10-05 07:48:00,
2013-10-05 03:50:00,68.1,66.9,29.96,SE,146,0.0,4.7,96,0.00,,OVC041,0.00,VWS V14.01,2013-10-05 07:50:00,
2013-10-05 03:53:00,67.6,66.7,29.95,SSE,155,0.0,0.0,97,0.01,,CLR,0.01,VWS V14.01,2013-10-05 07:53:00,
2013-10-05 03:58:00,67.3,66.1,29.95,SSE,155,0.0,0.0,96,0.01,,CLR,0.01,VWS V14.01,2013-10-05 07:58:00,
2013-10-05 04:00:00,68.1,66.9,29.96,SSE,147,1.2,4.7,96,0.00,,OVC041,0.00,VWS V14.01,2013-10-05 08:00:00,
2013-10-05 04:03:00,66.9,65.7,29.95,SSE,155,0.0,1.2,96,0.01,,CLR,0.01,VWS V14.01,2013-10-05 08:03:00,
2013-10-05 04:08:00,66.6,65.4,29.95,SSE,155,0.0,1.2,96,0.01,,CLR,0.01,VWS V14.01,2013-10-05 08:08:00,
2013-10-05 04:10:00,67.9,66.7,29.96,SSE,157,1.2,5.9,96,0.00,,OVC041,0.00,VWS V14.01,2013-10-05 08:10:00,
2013-10-05 04:13:00,66.6,65.4,29.95,SSE,155,0.0,0.0,96,0.01,,CLR,0.01,VWS V14.01,2013-10-05 08:13:00,
2013-10-05 04:18:00,66.4,65.5,29.95,SSE,155,0.0,0.0,97,0.01,,CLR,0.01,VWS V14.01,2013-10-05 08:18:00,
2013-10-05 04:20:00,67.9,66.7,29.95,SSE,157,0.0,2.4,96,0.00,,OVC041,0.00,VWS V14.01,2013-10-05 08:20:00,
2013-10-05 04:24:00,66.4,65.5,29.95,SSE,155,0.0,0.0,97,0.01,,CLR,0.01,VWS V14.01,2013-10-05 08:24:00,
2013-10-05 04:29:00,66.3,65.4,29.95,SSE,155,0.0,2.4,97,0.01,,CLR,0.01,VWS V14.01,2013-10-05 08:29:00,
2013-10-05 04:30:00,67.8,66.6,29.95,SSE,157,0.0,1.2,96,0.01,,OVC041,0.01,VWS V14.01,2013-10-05 08:30:00,
2013-10-05 04:34:00,66.1,65.2,29.95,SSE,155,0.0,0.0,97,0.00,,CLR,0.01,VWS V14.01,2013-10-05 08:34:00,
2013-10-05 04:39:00,66.1,65.2,29.95,SSE,155,0.0,1.2,97,0.00,,CLR,0.01,VWS V14.01,2013-10-05 08:39:00,
2013-10-05 04:40:00,67.8,66.6,29.95,SSE,155,0.0,5.9,96,0.01,,OVC041,0.01,VWS V14.01,2013-10-05 08:40:00,
2013-10-05 04:44:00,66.1,65.2,29.95,SSE,155,0.0,1.2,97,0.00,,CLR,0.01,VWS V14.01,2013-10-05 08:44:00,
2013-10-05 04:49:00,66.1,65.5,29.95,SSE,155,0.0,1.2,98,0.00,,CLR,0.01,VWS V14.01,2013-10-05 08:49:00,
2013-10-05 04:50:00,67.6,66.7,29.95,SSE,155,0.0,1.2,97,0.01,,OVC041,0.01,VWS V14.01,2013-10-05 08:50:00,
2013-10-05 04:54:00,66.1,65.5,29.95,SSE,155,0.0,1.2,98,0.00,,CLR,0.01,VWS V14.01,2013-10-05 08:54:00,
2013-10-05 04:59:00,66.1,65.5,29.95,SSE,155,0.0,1.2,98,0.00,,CLR,0.01,VWS V14.01,2013-10-05 08:59:00,
2013-10-05 05:00:00,67.1,65.9,29.95,SSE,155,0.0,0.0,96,0.01,,OVC041,0.01,VWS V14.01,2013-10-05 09:00:00,
2013-10-05 05:04:00,66.0,65.4,29.95,SSE,155,0.0,0.0,98,0.00,,CLR,0.01,VWS V14.01,2013-10-05 09:04:00,
2013-10-05 05:09:00,65.6,65.0,29.95,SSE,155,0.0,0.0,98,0.00,,CLR,0.01,VWS V14.01,2013-10-05 09:09:00,
2013-10-05 05:10:00,66.6,65.4,29.95,SSE,155,0.0,1.2,96,0.01,,OVC041,0.01,VWS V14.01,2013-10-05 09:10:00,
2013-10-05 05:14:00,65.5,64.9,29.95,SSE,155,0.0,0.0,98,0.00,,CLR,0.01,VWS V14.01,2013-10-05 09:14:00,
2013-10-05 05:19:00,65.3,64.7,29.95,SSE,155,0.0,0.0,98,0.00,,CLR,0.01,VWS V14.01,2013-10-05 09:19:00,
2013-10-05 05:20:00,66.4,65.5,29.95,SSE,155,0.0,0.0,97,0.01,,OVC041,0.01,VWS V14.01,2013-10-05 09:20:00,
2013-10-05 05:24:00,65.5,65.2,29.95,SSE,155,0.0,4.7,99,0.00,,CLR,0.01,VWS V14.01,2013-10-05 09:24:00,
2013-10-05 05:30:00,65.5,65.5,29.95,SSE,155,0.0,4.7,100,0.00,,CLR,0.01,VWS V14.01,2013-10-05 09:30:00,
2013-10-05 05:35:00,65.6,65.6,29.95,SSE,155,0.0,0.0,100,0.00,,CLR,0.01,VWS V14.01,2013-10-05 09:35:00,
2013-10-05 05:40:00,65.6,65.6,29.96,SSE,155,0.0,1.2,100,0.00,,CLR,0.01,VWS V14.01,2013-10-05 09:40:00,
2013-10-05 05:45:00,65.5,65.5,29.96,SSE,155,0.0,1.2,100,0.00,,CLR,0.01,VWS V14.01,2013-10-05 09:45:00,
2013-10-05 05:50:00,65.3,65.3,29.96,SSE,155,0.0,1.2,100,0.00,,CLR,0.01,VWS V14.01,2013-10-05 09:50:00,
2013-10-05 05:55:00,65.2,65.2,29.95,SSE,155,0.0,0.0,100,0.00,,CLR,0.01,VWS V14.01,2013-10-05 09:55:00,
2013-10-05 06:00:00,65.0,65.0,29.95,SSE,155,0.0,0.0,100,0.00,,CLR,0.01,VWS V14.01,2013-10-05 10:00:00,
2013-10-05 06:05:00,64.8,64.5,29.95,SSE,155,0.0,0.0,99,0.00,,CLR,0.01,VWS V14.01,2013-10-05 10:05:00,
2013-10-05 06:10:00,64.7,64.7,29.96,SSE,155,0.0,0.0,100,0.00,,CLR,0.01,VWS V14.01,2013-10-05 10:10:00,
2013-10-05 06:15:00,64.3,64.0,29.96,SSE,155,0.0,0.0,99,0.00,,CLR,0.01,VWS V14.01,2013-10-05 10:15:00,
2013-10-05 06:20:00,64.2,63.9,29.96,SSE,155,0.0,0.0,99,0.00,,CLR,0.01,VWS V14.01,2013-10-05 10:20:00,
2013-10-05 06:25:00,64.0,63.7,29.95,SSE,155,0.0,0.0,99,0.00,,CLR,0.01,VWS V14.01,2013-10-05 10:25:00,
2013-10-05 06:30:00,63.9,63.6,29.95,SSE,155,0.0,0.0,99,0.00,,CLR,0.01,VWS V14.01,2013-10-05 10:30:00,
2013-10-05 06:35:00,63.7,63.4,29.95,SSE,155,0.0,0.0,99,0.00,,CLR,0.01,VWS V14.01,2013-10-05 10:35:00,
2013-10-05 06:40:00,63.5,63.5,29.95,SSE,155,0.0,0.0,100,0.00,,CLR,0.01,VWS V14.01,2013-10-05 10:40:00,
2013-10-05 06:45:00,63.7,63.7,29.95,SSE,155,0.0,1.2,100,0.00,,CLR,0.01,VWS V14.01,2013-10-05 10:45:00,
2013-10-05 06:50:00,63.9,63.9,29.95,SSE,155,0.0,0.0,100,0.00,,CLR,0.01,VWS V14.01,2013-10-05 10:50:00,
2013-10-05 06:56:00,63.9,63.9,29.95,SSE,155,0.0,0.0,100,0.00,,CLR,0.01,VWS V14.01,2013-10-05 10:56:00,
2013-10-05 07:00:00,65.0,65.0,29.95,SSE,155,0.0,0.0,100,0.00,,OVC041,0.01,VWS V14.01,2013-10-05 11:00:00,
2013-10-05 07:01:00,63.9,63.9,29.95,SSE,155,0.0,0.0,100,0.00,,CLR,0.01,VWS V14.01,2013-10-05 11:01:00,
2013-10-05 07:06:00,63.5,63.5,29.95,SSE,155,0.0,0.0,100,0.00,,CLR,0.01,VWS V14.01,2013-10-05 11:06:00,
2013-10-05 07:10:00,64.7,64.7,29.95,SSE,155,0.0,0.0,100,0.00,,OVC041,0.01,VWS V14.01,2013-10-05 11:10:00,
2013-10-05 07:11:00,63.4,63.4,29.95,SSE,155,0.0,0.0,100,0.00,,CLR,0.01,VWS V14.01,2013-10-05 11:11:00,
2013-10-05 07:16:00,63.2,63.2,29.95,SSE,155,0.0,0.0,100,0.00,,CLR,0.01,VWS V14.01,2013-10-05 11:16:00,
2013-10-05 07:20:00,64.2,63.9,29.95,SSE,155,0.0,0.0,99,0.00,,OVC041,0.01,VWS V14.01,2013-10-05 11:20:00,
2013-10-05 07:21:00,63.1,63.1,29.95,SSE,155,0.0,0.0,100,0.00,,CLR,0.01,VWS V14.01,2013-10-05 11:21:00,
2013-10-05 07:26:00,62.7,62.7,29.95,SSE,155,0.0,0.0,100,0.00,,CLR,0.01,VWS V14.01,2013-10-05 11:26:00,
2013-10-05 07:30:00,63.9,63.6,29.95,SSE,155,0.0,0.0,99,0.00,,OVC041,0.01,VWS V14.01,2013-10-05 11:30:00,
2013-10-05 07:31:00,62.7,62.7,29.95,SSE,155,0.0,0.0,100,0.00,,CLR,0.01,VWS V14.01,2013-10-05 11:31:00,
2013-10-05 07:36:00,62.6,62.6,29.95,SSE,155,0.0,0.0,100,0.00,,CLR,0.01,VWS V14.01,2013-10-05 11:36:00,
2013-10-05 07:40:00,63.5,63.5,29.95,SSE,155,0.0,0.0,100,0.00,,OVC041,0.01,VWS V14.01,2013-10-05 11:40:00,
2013-10-05 07:41:00,62.7,62.7,29.95,SSE,155,0.0,0.0,100,0.00,,,0.01,VWS V14.01,2013-10-05 11:41:00,
2013-10-05 07:46:00,62.9,62.9,29.95,SSE,155,0.0,1.2,100,0.00,,,0.01,VWS V14.01,2013-10-05 11:46:00,
2013-10-05 07:50:00,63.9,63.9,29.95,SSE,155,0.0,1.2,100,0.00,,OVC041,0.01,VWS V14.01,2013-10-05 11:50:00,
2013-10-05 07:51:00,63.4,63.4,29.95,SSE,155,0.0,0.0,100,0.00,,,0.01,VWS V14.01,2013-10-05 11:51:00,
2013-10-05 07:56:00,63.5,63.5,29.94,SSE,155,0.0,1.2,100,0.00,,,0.01,VWS V14.01,2013-10-05 11:56:00,
2013-10-05 08:00:00,63.9,63.9,29.95,SSE,155,0.0,0.0,100,0.00,,OVC041,0.01,VWS V14.01,2013-10-05 12:00:00,
2013-10-05 08:02:00,63.5,63.5,29.94,SSE,155,0.0,1.2,100,0.00,,,0.01,VWS V14.01,2013-10-05 12:02:00,
2013-10-05 08:07:00,63.5,63.5,29.95,SSE,155,0.0,1.2,100,0.00,,,0.01,VWS V14.01,2013-10-05 12:07:00,
2013-10-05 08:10:00,63.4,63.4,29.95,SSE,155,0.0,0.0,100,0.00,,OVC041,0.01,VWS V14.01,2013-10-05 12:10:00,
2013-10-05 08:12:00,63.5,63.5,29.95,SSE,155,0.0,0.0,100,0.00,,,0.01,VWS V14.01,2013-10-05 12:12:00,
2013-10-05 08:17:00,63.5,63.5,29.95,SSE,155,0.0,1.2,100,0.00,,,0.01,VWS V14.01,2013-10-05 12:17:00,
2013-10-05 08:20:00,63.1,63.1,29.95,SSE,155,0.0,0.0,100,0.00,,OVC041,0.01,VWS V14.01,2013-10-05 12:20:00,
2013-10-05 08:22:00,63.9,63.9,29.95,SSE,155,0.0,1.2,100,0.00,,,0.01,VWS V14.01,2013-10-05 12:22:00,
2013-10-05 08:27:00,64.2,64.2,29.95,SSE,155,0.0,4.7,100,0.00,,,0.01,VWS V14.01,2013-10-05 12:27:00,
2013-10-05 08:30:00,62.7,62.7,29.95,SSE,155,0.0,0.0,100,0.00,,OVC041,0.01,VWS V14.01,2013-10-05 12:30:00,
2013-10-05 08:32:00,64.7,64.7,29.94,SSE,155,0.0,0.0,100,0.00,,,0.01,VWS V14.01,2013-10-05 12:32:00,
2013-10-05 08:37:00,65.2,65.2,29.94,SSE,155,0.0,4.7,100,0.00,,,0.01,VWS V14.01,2013-10-05 12:37:00,
2013-10-05 08:40:00,62.7,62.7,29.95,SSE,155,0.0,0.0,100,0.00,,OVC041,0.01,VWS V14.01,2013-10-05 12:40:00,
2013-10-05 08:42:00,65.8,65.8,29.94,SSE,155,0.0,1.2,100,0.00,,,0.01,VWS V14.01,2013-10-05 12:42:00,
2013-10-05 08:47:00,66.4,66.4,29.94,SSE,155,0.0,1.2,100,0.00,,,0.01,VWS V14.01,2013-10-05 12:47:00,
2013-10-05 08:50:00,63.2,63.2,29.95,SSE,155,0.0,1.2,100,0.00,,OVC041,0.01,VWS V14.01,2013-10-05 12:50:00,
2013-10-05 08:52:00,66.9,66.9,29.94,SSE,155,0.0,4.7,100,0.00,,,0.01,VWS V14.01,2013-10-05 12:52:00,
2013-10-05 08:58:00,67.3,67.3,29.94,SSE,155,4.7,4.7,100,0.00,,,0.01,VWS V14.01,2013-10-05 12:58:00,
2013-10-05 09:00:00,63.5,63.5,29.94,SSE,155,0.0,1.2,100,0.00,,OVC041,0.01,VWS V14.01,2013-10-05 13:00:00,
2013-10-05 09:03:00,67.6,67.6,29.94,SSE,148,4.7,7.1,100,0.00,,,0.01,VWS V14.01,2013-10-05 13:03:00,
2013-10-05 09:07:00,67.8,67.8,29.95,SSE,165,0.0,7.1,100,0.00,,,0.01,VWS V14.01,2013-10-05 13:07:00,
2013-10-05 09:10:00,63.5,63.5,29.95,SSE,155,0.0,1.2,100,0.00,,OVC041,0.01,VWS V14.01,2013-10-05 13:10:00,
2013-10-05 09:13:00,68.1,68.1,29.95,SE,143,0.0,5.9,100,0.00,,,0.01,VWS V14.01,2013-10-05 13:13:00,
2013-10-05 09:18:00,68.3,68.3,29.94,SSE,152,5.9,7.1,100,0.00,,,0.01,VWS V14.01,2013-10-05 13:18:00,
2013-10-05 09:20:00,63.7,63.7,29.95,SSE,155,0.0,1.2,100,0.00,,OVC041,0.01,VWS V14.01,2013-10-05 13:20:00,
2013-10-05 09:23:00,68.6,68.6,29.94,South,189,0.0,9.4,100,0.00,,,0.01,VWS V14.01,2013-10-05 13:23:00,
2013-10-05 09:28:00,68.8,68.8,29.95,South,178,7.1,9.4,100,0.00,,,0.01,VWS V14.01,2013-10-05 13:28:00,
2013-10-05 09:30:00,64.3,64.3,29.94,SSE,155,0.0,4.7,100,0.00,,OVC041,0.01,VWS V14.01,2013-10-05 13:30:00,
2013-10-05 09:33:00,69.1,69.1,29.94,SSE,166,4.7,7.1,100,0.00,,,0.01,VWS V14.01,2013-10-05 13:33:00,
2013-10-05 09:38:00,69.3,69.3,29.94,SSE,160,0.0,7.1,100,0.00,,,0.01,VWS V14.01,2013-10-05 13:38:00,
2013-10-05 09:40:00,65.5,65.5,29.94,SSE,155,0.0,4.7,100,0.00,,OVC041,0.01,VWS V14.01,2013-10-05 13:40:00,
2013-10-05 09:43:00,69.4,69.4,29.94,South,173,4.7,7.1,100,0.00,,,0.01,VWS V14.01,2013-10-05 13:43:00,
2013-10-05 09:48:00,69.4,69.4,29.94,SSE,154,4.7,7.1,100,0.00,,,0.01,VWS V14.01,2013-10-05 13:48:00,
2013-10-05 09:50:00,66.6,66.6,29.94,SSE,155,4.7,4.7,100,0.00,,OVC041,0.01,VWS V14.01,2013-10-05 13:50:00,
2013-10-05 09:53:00,69.6,69.6,29.94,South,186,4.7,8.3,100,0.00,,BKN010,0.01,VWS V14.01,2013-10-05 13:53:00,
2013-10-05 09:58:00,69.6,69.6,29.94,SSE,151,2.4,8.3,100,0.00,,BKN010,0.01,VWS V14.01,2013-10-05 13:58:00,
2013-10-05 10:00:00,67.4,67.4,29.94,SSE,152,2.4,5.9,100,0.00,,OVC041,0.01,VWS V14.01,2013-10-05 14:00:00,
2013-10-05 10:03:00,69.8,69.8,29.94,South,173,0.0,7.1,100,0.00,,BKN010,0.01,VWS V14.01,2013-10-05 14:03:00,
2013-10-05 10:08:00,69.9,69.9,29.94,South,188,4.7,7.1,100,0.00,,BKN010,0.01,VWS V14.01,2013-10-05 14:08:00,
2013-10-05 10:10:00,67.9,67.9,29.95,SSE,165,2.4,7.1,100,0.00,,OVC041,0.01,VWS V14.01,2013-10-05 14:10:00,
2013-10-05 10:13:00,70.1,70.1,29.94,South,184,1.2,8.3,100,0.00,,BKN010,0.01,VWS V14.01,2013-10-05 14:13:00,
2013-10-05 10:18:00,70.3,70.3,29.94,South,190,0.0,8.3,100,0.00,,BKN010,0.01,VWS V14.01,2013-10-05 14:18:00,
2013-10-05 10:20:00,68.4,68.4,29.95,SSE,162,7.1,7.1,100,0.00,,OVC041,0.01,VWS V14.01,2013-10-05 14:20:00,
2013-10-05 10:24:00,70.4,70.4,29.94,SE,143,4.7,4.7,100,0.00,,BKN010,0.01,VWS V14.01,2013-10-05 14:24:00,
2013-10-05 10:29:00,70.6,70.6,29.94,South,175,0.0,5.9,100,0.00,,BKN010,0.01,VWS V14.01,2013-10-05 14:29:00,
2013-10-05 10:30:00,68.9,68.9,29.94,SSE,155,2.4,9.4,100,0.00,,OVC041,0.01,VWS V14.01,2013-10-05 14:30:00,
2013-10-05 10:34:00,70.8,70.8,29.93,SSE,147,1.2,7.1,100,0.00,,BKN010,0.01,VWS V14.01,2013-10-05 14:34:00,
2013-10-05 10:39:00,70.9,70.9,29.94,SE,130,1.2,8.3,100,0.00,,BKN010,0.01,VWS V14.01,2013-10-05 14:39:00,
2013-10-05 10:40:00,69.4,69.4,29.94,SSW,197,7.1,7.1,100,0.00,,OVC041,0.01,VWS V14.01,2013-10-05 14:40:00,
2013-10-05 10:44:00,71.1,71.1,29.94,South,182,1.2,9.4,100,0.00,,BKN007,0.01,VWS V14.01,2013-10-05 14:44:00,
2013-10-05 10:49:00,71.1,71.1,29.94,SSE,151,1.2,9.4,100,0.00,,BKN007,0.01,VWS V14.01,2013-10-05 14:49:00,
2013-10-05 10:50:00,69.6,69.6,29.94,ESE,123,4.7,7.1,100,0.00,,OVC041,0.01,VWS V14.01,2013-10-05 14:50:00,
2013-10-05 10:54:00,71.3,71.3,29.94,South,183,0.0,9.4,100,0.00,,BKN007,0.01,VWS V14.01,2013-10-05 14:54:00,
2013-10-05 10:59:00,71.5,71.5,29.94,SE,140,9.4,9.4,100,0.00,,BKN007,0.01,VWS V14.01,2013-10-05 14:59:00,
2013-10-05 11:00:00,69.6,69.6,29.94,SSE,151,4.7,8.3,100,0.00,,OVC041,0.01,VWS V14.01,2013-10-05 15:00:00,
2013-10-05 11:04:00,71.5,71.5,29.94,SSE,159,1.2,8.3,100,0.00,,BKN007,0.01,VWS V14.01,2013-10-05 15:04:00,
2013-10-05 11:09:00,71.6,71.6,29.94,SSE,161,4.7,10.6,100,0.00,,BKN007,0.01,VWS V14.01,2013-10-05 15:09:00,
2013-10-05 11:10:00,69.9,69.9,29.94,South,188,5.9,7.1,100,0.00,,OVC041,0.01,VWS V14.01,2013-10-05 15:10:00,
2013-10-05 11:14:00,71.6,71.6,29.94,SSW,202,3.5,8.3,100,0.00,,BKN007,0.01,VWS V14.01,2013-10-05 15:14:00,
2013-10-05 11:19:00,71.8,71.8,29.94,South,185,5.9,14.2,100,0.00,,BKN007,0.01,VWS V14.01,2013-10-05 15:19:00,
2013-10-05 11:20:00,70.3,70.3,29.94,South,190,0.0,8.3,100,0.00,,OVC041,0.01,VWS V14.01,2013-10-05 15:20:00,
2013-10-05 11:25:00,71.8,71.8,29.94,SSW,194,3.5,13.0,100,0.00,,BKN007,0.01,VWS V14.01,2013-10-05 15:25:00,
2013-10-05 11:30:00,71.8,71.8,29.94,SE,146,9.4,13.0,100,0.00,,BKN007,0.01,VWS V14.01,2013-10-05 15:30:00,
2013-10-05 11:35:00,71.8,71.8,29.94,South,181,7.1,16.5,100,0.00,,BKN007,0.01,VWS V14.01,2013-10-05 15:35:00,
2013-10-05 11:40:00,71.8,71.8,29.94,SE,144,7.1,9.4,100,0.00,,BKN007,0.01,VWS V14.01,2013-10-05 15:40:00,
2013-10-05 11:45:00,71.8,71.8,29.94,SSW,204,7.1,11.8,100,0.00,,OVC009,0.01,VWS V14.01,2013-10-05 15:45:00,
2013-10-05 11:50:00,72.0,72.0,29.94,South,174,0.0,4.7,100,0.00,,OVC009,0.01,VWS V14.01,2013-10-05 15:50:00,
2013-10-05 11:55:00,72.0,72.0,29.94,SSE,159,1.2,10.6,100,0.00,,OVC009,0.01,VWS V14.01,2013-10-05 15:55:00,
2013-10-05 12:00:00,72.1,72.1,29.94,South,180,3.5,3.5,100,0.00,,OVC009,0.01,VWS V14.01,2013-10-05 16:00:00,
2013-10-05 12:05:00,72.1,72.1,29.93,SSW,193,5.9,13.0,100,0.00,,OVC009,0.01,VWS V14.01,2013-10-05 16:05:00,
2013-10-05 12:10:00,72.3,72.0,29.93,SSE,161,2.4,5.9,99,0.00,,OVC009,0.01,VWS V14.01,2013-10-05 16:10:00,
2013-10-05 12:15:00,72.5,71.6,29.93,SSE,159,4.7,15.3,97,0.00,,OVC009,0.01,VWS V14.01,2013-10-05 16:15:00,
2013-10-05 12:20:00,72.7,71.5,29.93,South,180,0.0,4.7,96,0.00,,OVC009,0.01,VWS V14.01,2013-10-05 16:20:00,
2013-10-05 12:25:00,72.7,71.2,29.93,South,169,2.4,9.4,95,0.00,,OVC009,0.01,VWS V14.01,2013-10-05 16:25:00,
2013-10-05 12:30:00,72.8,71.3,29.93,SE,144,5.9,5.9,95,0.00,,OVC009,0.01,VWS V14.01,2013-10-05 16:30:00,
2013-10-05 12:35:00,73.0,71.2,29.93,SSE,163,5.9,9.4,94,0.00,,OVC009,0.01,VWS V14.01,2013-10-05 16:35:00,
2013-10-05 12:40:00,73.0,71.2,29.92,South,190,4.7,8.3,94,0.00,,OVC011,0.01,VWS V14.01,2013-10-05 16:40:00,
2013-10-05 12:45:00,73.3,71.1,29.92,SSW,193,4.7,10.6,93,0.00,,OVC011,0.01,VWS V14.01,2013-10-05 16:45:00,
2013-10-05 12:50:00,72.0,72.0,29.94,South,173,4.7,11.8,100,0.00,,OVC041,0.01,VWS V14.01,2013-10-05 16:50:00,
2013-10-05 12:51:00,73.3,70.8,29.92,SSE,167,5.9,5.9,92,0.00,,OVC011,0.01,VWS V14.01,2013-10-05 16:51:00,
2013-10-05 12:56:00,73.5,71.0,29.92,SSE,150,10.6,13.0,92,0.00,,OVC011,0.01,VWS V14.01,2013-10-05 16:56:00,
2013-10-05 13:00:00,72.1,72.1,29.94,SSE,155,2.4,13.0,100,0.00,,OVC041,0.01,VWS V14.01,2013-10-05 17:00:00,
2013-10-05 13:01:00,73.7,70.9,29.92,SSW,197,3.5,3.5,91,0.00,,OVC011,0.01,VWS V14.01,2013-10-05 17:01:00,
2013-10-05 13:06:00,73.9,71.1,29.92,South,175,0.0,10.6,91,0.00,,OVC011,0.01,VWS V14.01,2013-10-05 17:06:00,
2013-10-05 13:10:00,72.3,72.3,29.93,SSE,161,5.9,15.3,100,0.00,,OVC041,0.01,VWS V14.01,2013-10-05 17:10:00,
2013-10-05 13:11:00,74.2,71.1,29.92,SSW,192,3.5,5.9,90,0.00,,OVC011,0.01,VWS V14.01,2013-10-05 17:11:00,
2013-10-05 13:16:00,74.6,71.4,29.91,SSE,156,2.4,8.3,90,0.00,,OVC011,0.01,VWS V14.01,2013-10-05 17:16:00,
2013-10-05 13:20:00,72.5,71.3,29.93,South,180,1.2,15.3,96,0.00,,OVC041,0.01,VWS V14.01,2013-10-05 17:20:00,
2013-10-05 13:21:00,74.7,71.2,29.91,SE,142,5.9,7.1,89,0.00,,OVC011,0.01,VWS V14.01,2013-10-05 17:21:00,
2013-10-05 13:26:00,74.9,71.1,29.92,SSW,194,5.9,11.8,88,0.00,,OVC011,0.01,VWS V14.01,2013-10-05 17:26:00,
2013-10-05 13:30:00,72.8,71.3,29.93,South,180,1.2,10.6,95,0.00,,OVC041,0.01,VWS V14.01,2013-10-05 17:30:00,
2013-10-05 13:31:00,75.1,70.9,29.91,SSW,203,4.7,11.8,87,0.00,,OVC011,0.01,VWS V14.01,2013-10-05 17:31:00,
2013-10-05 13:36:00,75.1,70.6,29.91,South,182,8.3,11.8,86,0.00,,OVC011,0.01,VWS V14.01,2013-10-05 17:36:00,
2013-10-05 13:40:00,73.0,71.2,29.92,SE,138,8.3,9.4,94,0.00,,OVC041,0.01,VWS V14.01,2013-10-05 17:40:00,
2013-10-05 13:41:00,75.3,70.4,29.91,SSW,200,3.5,7.1,85,0.00,,OVC042,0.01,VWS V14.01,2013-10-05 17:41:00,
2013-10-05 13:46:00,75.3,70.4,29.91,South,172,5.9,10.6,85,0.00,,OVC042,0.01,VWS V14.01,2013-10-05 17:46:00,
2013-10-05 13:50:00,73.3,71.1,29.92,SSE,148,4.7,10.6,93,0.00,,OVC041,0.01,VWS V14.01,2013-10-05 17:50:00,
2013-10-05 13:51:00,75.3,70.1,29.91,SSE,149,4.7,9.4,84,0.00,,BKN031,0.01,VWS V14.01,2013-10-05 17:51:00,
2013-10-05 13:56:00,75.1,69.9,29.91,SSW,194,5.9,10.6,84,0.00,,BKN031,0.01,VWS V14.01,2013-10-05 17:56:00,
2013-10-05 14:00:00,73.7,70.9,29.92,South,169,2.4,13.0,91,0.00,,OVC041,0.01,VWS V14.01,2013-10-05 18:00:00,
2013-10-05 14:01:00,75.1,69.9,29.90,SSE,161,7.1,7.1,84,0.00,,BKN031,0.01,VWS V14.01,2013-10-05 18:01:00,
2013-10-05 14:06:00,74.9,69.7,29.90,South,189,7.1,11.8,84,0.00,,BKN031,0.01,VWS V14.01,2013-10-05 18:06:00,
2013-10-05 14:10:00,74.2,71.4,29.92,South,182,2.4,10.6,91,0.00,,OVC041,0.01,VWS V14.01,2013-10-05 18:10:00,
2013-10-05 14:11:00,75.1,70.2,29.90,SSE,153,7.1,9.4,85,0.00,,BKN031,0.01,VWS V14.01,2013-10-05 18:11:00,
2013-10-05 14:16:00,75.4,70.5,29.89,ESE,109,4.7,9.4,85,0.00,,BKN031,0.01,VWS V14.01,2013-10-05 18:16:00,
2013-10-05 14:20:00,74.7,71.5,29.92,South,169,2.4,14.2,90,0.00,,OVC041,0.01,VWS V14.01,2013-10-05 18:20:00,
2013-10-05 14:21:00,75.6,70.4,29.89,SE,138,9.4,9.4,84,0.00,,BKN031,0.01,VWS V14.01,2013-10-05 18:21:00,
2013-10-05 14:26:00,75.8,70.2,29.89,East,100,5.9,13.0,83,0.00,,BKN031,0.01,VWS V14.01,2013-10-05 18:26:00,
2013-10-05 14:30:00,75.1,70.9,29.91,SSW,209,4.7,11.8,87,0.00,,OVC041,0.01,VWS V14.01,2013-10-05 18:30:00,
2013-10-05 14:31:00,76.0,70.4,29.89,SSE,162,2.4,9.4,83,0.00,,BKN031,0.01,VWS V14.01,2013-10-05 18:31:00,
2013-10-05 14:36:00,76.1,70.5,29.89,SSE,152,1.2,9.4,83,0.00,,BKN031,0.01,VWS V14.01,2013-10-05 18:36:00,
2013-10-05 14:40:00,75.1,70.2,29.91,South,171,5.9,15.3,85,0.00,,OVC041,0.01,VWS V14.01,2013-10-05 18:40:00,
2013-10-05 14:41:00,76.3,70.7,29.89,SE,136,9.4,9.4,83,0.00,,SCT035,0.01,VWS V14.01,2013-10-05 18:41:00,
2013-10-05 14:46:00,76.5,70.5,29.89,SE,140,4.7,14.2,82,0.00,,SCT035,0.01,VWS V14.01,2013-10-05 18:46:00,
2013-10-05 14:50:00,75.3,70.4,29.91,SE,145,9.4,11.8,85,0.00,,OVC041,0.01,VWS V14.01,2013-10-05 18:50:00,
2013-10-05 14:51:00,76.5,70.2,29.89,SE,132,1.2,5.9,81,0.00,,SCT035,0.01,VWS V14.01,2013-10-05 18:51:00,
2013-10-05 14:56:00,76.5,70.2,29.89,SE,138,9.4,14.2,81,0.00,,SCT035,0.01,VWS V14.01,2013-10-05 18:56:00,
2013-10-05 15:00:00,75.1,69.9,29.90,South,182,3.5,14.2,84,0.00,,OVC041,0.01,VWS V14.01,2013-10-05 19:00:00,
2013-10-05 15:01:00,76.3,70.0,29.89,ESE,123,10.6,10.6,81,0.00,,SCT035,0.01,VWS V14.01,2013-10-05 19:01:00,
2013-10-05 15:06:00,76.3,70.0,29.89,SSE,157,9.4,15.3,81,0.00,,SCT035,0.01,VWS V14.01,2013-10-05 19:06:00,
2013-10-05 15:10:00,75.1,69.9,29.90,ESE,117,5.9,11.8,84,0.00,,OVC041,0.01,VWS V14.01,2013-10-05 19:10:00,
2013-10-05 15:11:00,76.0,69.7,29.89,SSW,201,11.8,28.3,81,0.00,,SCT035,0.01,VWS V14.01,2013-10-05 19:11:00,
2013-10-05 15:16:00,75.4,67.6,29.89,SE,136,9.4,29.5,77,0.00,,SCT035,0.01,VWS V14.01,2013-10-05 19:16:00,
2013-10-05 15:20:00,75.6,70.4,29.90,ESE,123,8.3,13.0,84,0.00,,OVC041,0.01,VWS V14.01,2013-10-05 19:20:00,
2013-10-05 15:21:00,74.6,66.1,29.89,SSE,165,9.4,31.9,75,0.00,,SCT035,0.01,VWS V14.01,2013-10-05 19:21:00,
2013-10-05 15:26:00,73.9,66.2,29.88,SSE,150,10.6,31.9,77,0.02,,SCT035,0.03,VWS V14.01,2013-10-05 19:26:00,
2013-10-05 15:30:00,75.8,70.2,29.89,SE,137,9.4,13.0,83,0.00,,OVC041,0.01,VWS V14.01,2013-10-05 19:30:00,
2013-10-05 15:31:00,73.2,66.2,29.88,South,186,10.6,11.8,79,0.03,,SCT035,0.04,VWS V14.01,2013-10-05 19:31:00,
2013-10-05 15:36:00,72.5,66.3,29.88,South,171,9.4,16.5,81,0.03,,SCT035,0.04,VWS V14.01,2013-10-05 19:36:00,
2013-10-05 15:40:00,76.3,70.7,29.89,SSE,148,4.7,10.6,83,0.00,,OVC041,0.01,VWS V14.01,2013-10-05 19:40:00,
2013-10-05 15:41:00,71.8,65.9,29.87,South,172,5.9,14.2,82,0.03,,BKN046,0.04,VWS V14.01,2013-10-05 19:41:00,
2013-10-05 15:46:00,71.3,65.8,29.87,SSW,192,8.3,14.2,83,0.03,,BKN046,0.04,VWS V14.01,2013-10-05 19:46:00,
2013-10-05 15:50:00,76.5,70.2,29.89,SE,137,5.9,14.2,81,0.00,,OVC041,0.01,VWS V14.01,2013-10-05 19:50:00,
2013-10-05 15:51:00,70.9,66.1,29.87,South,179,5.9,8.3,85,0.03,,RA,0.04,VWS V14.01,2013-10-05 19:51:00,
2013-10-05 15:56:00,70.6,65.8,29.86,South,175,4.7,8.3,85,0.03,,RA,0.04,VWS V14.01,2013-10-05 19:56:00,
2013-10-05 16:00:00,76.3,70.0,29.89,SE,132,13.0,14.2,81,0.00,,OVC041,0.01,VWS V14.01,2013-10-05 20:00:00,
2013-10-05 16:01:00,70.4,66.0,29.86,South,186,0.0,2.4,86,0.04,,RA,0.05,VWS V14.01,2013-10-05 20:01:00,
2013-10-05 16:06:00,70.3,66.2,29.86,South,186,3.5,3.5,87,0.04,,RA,0.05,VWS V14.01,2013-10-05 20:06:00,
2013-10-05 16:10:00,76.1,70.1,29.89,SE,130,26.0,26.0,82,0.00,,OVC041,0.01,VWS V14.01,2013-10-05 20:10:00,
2013-10-05 16:11:00,70.1,66.0,29.87,South,186,0.0,1.2,87,0.04,,RA,0.05,VWS V14.01,2013-10-05 20:11:00,
2013-10-05 16:16:00,69.9,66.2,29.86,South,186,0.0,3.5,88,0.04,,RA,0.05,VWS V14.01,2013-10-05 20:16:00,
2013-10-05 16:20:00,74.7,66.5,29.89,SSW,201,31.9,31.9,76,0.00,,OVC041,0.01,VWS V14.01,2013-10-05 20:20:00,
2013-10-05 16:21:00,69.8,66.1,29.86,SSE,165,1.2,4.7,88,0.04,,RA,0.05,VWS V14.01,2013-10-05 20:21:00,
2013-10-05 16:26:00,69.6,66.2,29.86,SSE,164,0.0,5.9,89,0.04,,RA,0.05,VWS V14.01,2013-10-05 20:26:00,
2013-10-05 16:30:00,73.3,66.3,29.88,SSW,197,9.4,31.9,79,0.03,,OVC041,0.04,VWS V14.01,2013-10-05 20:30:00,
2013-10-05 16:31:00,69.6,66.2,29.86,SSE,164,2.4,2.4,89,0.01,,RA,0.05,VWS V14.01,2013-10-05 20:31:00,
2013-10-05 16:36:00,69.4,66.0,29.86,ESE,121,2.4,7.1,89,0.01,,RA,0.05,VWS V14.01,2013-10-05 20:36:00,
2013-10-05 16:40:00,72.0,66.1,29.87,South,186,5.9,16.5,82,0.03,,OVC041,0.04,VWS V14.01,2013-10-05 20:40:00,
2013-10-05 16:41:00,69.4,66.3,29.85,SSE,150,2.4,4.7,90,0.01,,-RA,0.05,VWS V14.01,2013-10-05 20:41:00,
2013-10-05 16:46:00,69.4,66.6,29.84,ESE,123,1.2,7.1,91,0.01,,-RA,0.05,VWS V14.01,2013-10-05 20:46:00,
2013-10-05 16:50:00,70.9,65.8,29.87,SSE,166,2.4,14.2,84,0.03,,OVC041,0.04,VWS V14.01,2013-10-05 20:50:00,
2013-10-05 16:51:00,69.4,66.6,29.84,ESE,115,0.0,4.7,91,0.01,,-RA,0.05,VWS V14.01,2013-10-05 20:51:00,
2013-10-05 16:56:00,69.4,66.6,29.84,SE,143,7.1,7.1,91,0.01,,-RA,0.05,VWS V14.01,2013-10-05 20:56:00,
2013-10-05 17:00:00,70.4,66.0,29.86,South,186,2.4,8.3,86,0.04,,OVC041,0.05,VWS V14.01,2013-10-05 21:00:00,
2013-10-05 17:01:00,69.4,66.9,29.84,SSE,148,0.0,1.2,92,0.00,,-RA,0.05,VWS V14.01,2013-10-05 21:01:00,
2013-10-05 17:06:00,69.4,66.9,29.84,SE,144,4.7,7.1,92,0.00,,-RA,0.05,VWS V14.01,2013-10-05 21:06:00,
2013-10-05 17:10:00,70.1,66.0,29.87,South,186,0.0,3.5,87,0.04,,OVC041,0.05,VWS V14.01,2013-10-05 21:10:00,
2013-10-05 17:11:00,69.6,67.5,29.83,ESE,112,7.1,9.4,93,0.00,,-RA,0.05,VWS V14.01,2013-10-05 21:11:00,
2013-10-05 17:16:00,69.8,67.7,29.82,ESE,123,4.7,11.8,93,0.00,,-RA,0.05,VWS V14.01,2013-10-05 21:16:00,
2013-10-05 17:20:00,69.8,66.1,29.86,South,169,1.2,4.7,88,0.04,,OVC041,0.05,VWS V14.01,2013-10-05 21:20:00,
2013-10-05 17:21:00,69.9,68.1,29.82,SE,146,9.4,9.4,94,0.00,,-RA,0.05,VWS V14.01,2013-10-05 21:21:00,
2013-10-05 17:26:00,69.9,68.1,29.80,ESE,111,7.1,10.6,94,0.00,,-RA,0.05,VWS V14.01,2013-10-05 21:26:00,
2013-10-05 17:30:00,69.6,66.2,29.86,SSE,164,1.2,5.9,89,0.04,,OVC041,0.05,VWS V14.01,2013-10-05 21:30:00,
2013-10-05 17:31:00,70.1,68.3,29.80,SE,125,14.2,14.2,94,0.01,,-RA,0.06,VWS V14.01,2013-10-05 21:31:00,
2013-10-05 17:36:00,70.3,68.8,29.80,SSE,148,5.9,14.2,95,0.01,,-RA,0.06,VWS V14.01,2013-10-05 21:36:00,
2013-10-05 17:40:00,69.4,66.3,29.85,SSE,154,1.2,7.1,90,0.01,,OVC041,0.05,VWS V14.01,2013-10-05 21:40:00,
2013-10-05 17:41:00,70.4,68.9,29.81,SE,132,5.9,5.9,95,0.01,,-RA,0.06,VWS V14.01,2013-10-05 21:41:00,
2013-10-05 17:46:00,70.4,68.9,29.82,SSE,148,5.9,8.3,95,0.01,,-RA,0.06,VWS V14.01,2013-10-05 21:46:00,
2013-10-05 17:50:00,69.4,66.6,29.84,ESE,115,4.7,7.1,91,0.01,,OVC041,0.05,VWS V14.01,2013-10-05 21:50:00,
2013-10-05 17:51:00,70.6,69.1,29.83,SSE,168,0.0,0.0,95,0.01,,-RA,0.06,VWS V14.01,2013-10-05 21:51:00,
2013-10-05 17:56:00,70.6,69.4,29.84,SSE,168,0.0,0.0,96,0.01,,-RA,0.06,VWS V14.01,2013-10-05 21:56:00,
2013-10-05 18:00:00,69.4,66.9,29.84,SSE,148,0.0,7.1,92,0.01,,OVC041,0.05,VWS V14.01,2013-10-05 22:00:00,
2013-10-05 18:01:00,70.6,69.4,29.84,South,169,0.0,2.4,96,0.02,,-RA,0.07,VWS V14.01,2013-10-05 22:01:00,
2013-10-05 18:06:00,70.8,69.6,29.84,SSE,168,1.2,4.7,96,0.02,,-RA,0.07,VWS V14.01,2013-10-05 22:06:00,
2013-10-05 18:10:00,69.6,67.2,29.83,SE,134,2.4,7.1,92,0.00,,OVC041,0.05,VWS V14.01,2013-10-05 22:10:00,
2013-10-05 18:11:00,70.9,69.7,29.83,SSE,168,2.4,2.4,96,0.02,,-RA,0.07,VWS V14.01,2013-10-05 22:11:00,
2013-10-05 18:16:00,70.9,69.7,29.84,ESE,115,4.7,5.9,96,0.02,,-RA,0.07,VWS V14.01,2013-10-05 22:16:00,
2013-10-05 18:20:00,69.8,68.0,29.82,ESE,118,7.1,11.8,94,0.00,,OVC041,0.05,VWS V14.01,2013-10-05 22:20:00,
2013-10-05 18:21:00,71.1,69.9,29.84,ESE,114,2.4,2.4,96,0.02,,-RA,0.07,VWS V14.01,2013-10-05 22:21:00,
2013-10-05 18:26:00,71.1,70.2,29.84,SE,129,0.0,2.4,97,0.02,,-RA,0.07,VWS V14.01,2013-10-05 22:26:00,
2013-10-05 18:30:00,70.1,68.3,29.80,ESE,119,5.9,10.6,94,0.01,,OVC041,0.06,VWS V14.01,2013-10-05 22:30:00,
2013-10-05 18:31:00,71.1,70.2,29.84,SE,129,0.0,0.0,97,0.01,,-RA,0.07,VWS V14.01,2013-10-05 22:31:00,
2013-10-05 18:36:00,71.1,70.2,29.84,SE,129,0.0,0.0,97,0.01,,-RA,0.07,VWS V14.01,2013-10-05 22:36:00,
2013-10-05 18:40:00,70.4,68.9,29.81,ESE,115,2.4,14.2,95,0.01,,OVC041,0.06,VWS V14.01,2013-10-05 22:40:00,
2013-10-05 18:41:00,71.1,70.2,29.83,SE,129,0.0,0.0,97,0.01,,FEW120,0.07,VWS V14.01,2013-10-05 22:41:00,
2013-10-05 18:46:00,71.1,70.2,29.83,SE,129,0.0,1.2,97,0.01,,FEW120,0.07,VWS V14.01,2013-10-05 22:46:00,
2013-10-05 18:50:00,70.6,69.1,29.83,SSE,168,0.0,8.3,95,0.01,,OVC041,0.06,VWS V14.01,2013-10-05 22:50:00,
2013-10-05 18:51:00,71.1,70.2,29.83,SE,129,0.0,1.2,97,0.01,,FEW120,0.07,VWS V14.01,2013-10-05 22:51:00,
2013-10-05 18:56:00,71.1,70.2,29.83,SE,129,0.0,1.2,97,0.01,,FEW120,0.07,VWS V14.01,2013-10-05 22:56:00,
2013-10-05 19:00:00,70.6,69.4,29.84,SSE,168,0.0,0.0,96,0.02,,OVC041,0.07,VWS V14.01,2013-10-05 23:00:00,
2013-10-05 19:01:00,71.3,70.7,29.83,SE,129,8.3,10.6,98,0.00,,FEW120,0.07,VWS V14.01,2013-10-05 23:01:00,
2013-10-05 19:06:00,71.5,70.9,29.83,SSE,160,4.7,15.3,98,0.00,,FEW120,0.07,VWS V14.01,2013-10-05 23:06:00,
2013-10-05 19:10:00,70.9,69.7,29.83,SSE,168,2.4,5.9,96,0.02,,OVC041,0.07,VWS V14.01,2013-10-05 23:10:00,
2013-10-05 19:11:00,71.5,71.2,29.83,South,177,2.4,5.9,99,0.00,,FEW120,0.07,VWS V14.01,2013-10-05 23:11:00,
2013-10-05 19:16:00,71.5,71.2,29.83,SE,138,8.3,14.2,99,0.00,,FEW120,0.07,VWS V14.01,2013-10-05 23:16:00,
2013-10-05 19:20:00,71.1,69.9,29.83,ESE,115,0.0,5.9,96,0.02,,OVC041,0.07,VWS V14.01,2013-10-05 23:20:00,
2013-10-05 19:21:00,71.5,71.2,29.84,SSW,205,8.3,20.1,99,0.00,,FEW120,0.07,VWS V14.01,2013-10-05 23:21:00,
2013-10-05 19:26:00,71.3,70.7,29.83,South,180,5.9,20.1,98,0.00,,FEW120,0.07,VWS V14.01,2013-10-05 23:26:00,
2013-10-05 19:30:00,71.1,70.2,29.84,SE,129,0.0,2.4,97,0.02,,OVC041,0.07,VWS V14.01,2013-10-05 23:30:00,
2013-10-05 19:31:00,71.1,70.5,29.83,South,173,4.7,11.8,98,0.00,,FEW120,0.07,VWS V14.01,2013-10-05 23:31:00,
2013-10-05 19:36:00,70.9,70.3,29.83,South,170,1.2,13.0,98,0.00,,FEW120,0.07,VWS V14.01,2013-10-05 23:36:00,
2013-10-05 19:40:00,71.1,70.2,29.84,SE,129,0.0,1.2,97,0.01,,OVC041,0.07,VWS V14.01,2013-10-05 23:40:00,
2013-10-05 19:41:00,70.9,70.0,29.83,South,184,3.5,9.4,97,0.00,,OVC060,0.07,VWS V14.01,2013-10-05 23:41:00,
2013-10-05 19:46:00,70.8,69.9,29.83,SSE,151,0.0,9.4,97,0.00,,OVC060,0.07,VWS V14.01,2013-10-05 23:46:00,
2013-10-05 19:50:00,71.1,70.2,29.83,SE,129,0.0,1.2,97,0.01,,OVC041,0.07,VWS V14.01,2013-10-05 23:50:00,
2013-10-05 19:51:00,70.6,69.7,29.83,SSE,152,5.9,5.9,97,0.00,,OVC060,0.07,VWS V14.01,2013-10-05 23:51:00,
2013-10-05 19:56:00,70.4,69.5,29.83,SSE,165,5.9,10.6,97,0.00,,OVC060,0.07,VWS V14.01,2013-10-05 23:56:00,
2013-10-05 20:00:00,71.3,70.7,29.83,ESE,119,5.9,8.3,98,0.01,,OVC041,0.07,VWS V14.01,2013-10-06 00:00:00,
2013-10-05 20:01:00,70.4,69.2,29.83,SSE,150,4.7,7.1,96,0.00,,OVC060,0.07,VWS V14.01,2013-10-06 00:01:00,
2013-10-05 20:06:00,70.3,69.1,29.83,SSE,157,2.4,9.4,96,0.00,,OVC060,0.07,VWS V14.01,2013-10-06 00:06:00,
2013-10-05 20:10:00,71.5,71.2,29.83,SE,138,4.7,15.3,99,0.00,,OVC041,0.07,VWS V14.01,2013-10-06 00:10:00,
2013-10-05 20:11:00,70.1,68.9,29.83,South,185,9.4,10.6,96,0.00,,SCT100,0.07,VWS V14.01,2013-10-06 00:11:00,
2013-10-05 20:16:00,69.9,68.7,29.83,SE,126,8.3,15.3,96,0.00,,SCT100,0.07,VWS V14.01,2013-10-06 00:16:00,
2013-10-05 20:20:00,71.5,71.2,29.84,SSW,208,7.1,14.2,99,0.00,,OVC041,0.07,VWS V14.01,2013-10-06 00:20:00,
2013-10-05 20:21:00,69.6,68.4,29.83,South,181,4.7,8.3,96,0.00,,SCT100,0.07,VWS V14.01,2013-10-06 00:21:00,
2013-10-05 20:26:00,69.4,67.9,29.83,SSE,166,4.7,16.5,95,0.00,,SCT100,0.07,VWS V14.01,2013-10-06 00:26:00,
2013-10-05 20:30:00,71.1,70.5,29.83,SE,146,5.9,20.1,98,0.00,,OVC041,0.07,VWS V14.01,2013-10-06 00:30:00,
2013-10-05 20:31:00,69.1,67.6,29.83,South,173,8.3,9.4,95,0.00,,SCT100,0.07,VWS V14.01,2013-10-06 00:31:00,
2013-10-05 20:36:00,68.9,67.4,29.83,South,177,5.9,10.6,95,0.00,,SCT100,0.07,VWS V14.01,2013-10-06 00:36:00,
2013-10-05 20:40:00,70.9,70.0,29.83,SW,217,4.7,13.0,97,0.00,,OVC041,0.07,VWS V14.01,2013-10-06 00:40:00,
2013-10-05 20:41:00,68.6,66.8,29.83,South,184,3.5,10.6,94,0.00,,SCT100,0.07,VWS V14.01,2013-10-06 00:41:00,
2013-10-05 20:46:00,68.4,66.6,29.84,SE,142,10.6,10.6,94,0.00,,SCT100,0.07,VWS V14.01,2013-10-06 00:46:00,
2013-10-05 20:50:00,70.6,69.7,29.83,SSW,194,2.4,11.8,97,0.00,,OVC041,0.07,VWS V14.01,2013-10-06 00:50:00,
2013-10-05 20:51:00,68.1,66.3,29.84,SSW,192,2.4,7.1,94,0.00,,SCT100,0.07,VWS V14.01,2013-10-06 00:51:00,
2013-10-05 20:56:00,67.9,66.1,29.84,South,180,1.2,9.4,94,0.00,,SCT100,0.07,VWS V14.01,2013-10-06 00:56:00,
2013-10-05 21:00:00,67.9,66.1,29.84,South,187,4.7,5.9,94,0.00,,SCT100,0.07,VWS V14.01,2013-10-06 01:00:00,
2013-10-05 21:05:00,67.8,66.0,29.84,SW,215,0.0,8.3,94,0.00,,SCT100,0.07,VWS V14.01,2013-10-06 01:05:00,
2013-10-05 21:10:00,70.1,68.9,29.83,SE,126,9.4,11.8,96,0.00,,OVC041,0.07,VWS V14.01,2013-10-06 01:10:00,
2013-10-05 21:11:00,67.8,66.0,29.84,South,187,0.0,0.0,94,0.00,,SCT100,0.07,VWS V14.01,2013-10-06 01:11:00,
2013-10-05 21:15:00,67.6,65.8,29.84,SSW,193,0.0,9.4,94,0.00,,SCT100,0.07,VWS V14.01,2013-10-06 01:15:00,
2013-10-05 21:20:00,67.6,65.8,29.84,SSW,194,0.0,1.2,94,0.00,,SCT100,0.07,VWS V14.01,2013-10-06 01:20:00,
2013-10-05 21:25:00,67.6,65.8,29.84,SSW,194,1.2,2.4,94,0.00,,SCT100,0.07,VWS V14.01,2013-10-06 01:25:00,
2013-10-05 21:30:00,67.4,65.6,29.85,SSW,194,0.0,0.0,94,0.00,,SCT100,0.07,VWS V14.01,2013-10-06 01:30:00,
2013-10-05 21:35:00,67.4,65.6,29.85,SSW,194,0.0,3.5,94,0.00,,SCT100,0.07,VWS V14.01,2013-10-06 01:35:00,
2013-10-05 21:40:00,67.4,65.6,29.85,SSW,193,0.0,2.4,94,0.00,,-RA,0.07,VWS V14.01,2013-10-06 01:40:00,
2013-10-05 21:45:00,67.4,65.6,29.84,South,178,0.0,4.7,94,0.00,,-RA,0.07,VWS V14.01,2013-10-06 01:45:00,
2013-10-05 21:50:00,67.3,65.5,29.84,South,178,0.0,0.0,94,0.00,,,0.07,VWS V14.01,2013-10-06 01:50:00,
2013-10-05 21:55:00,67.3,65.5,29.84,South,178,0.0,1.2,94,0.00,,,0.07,VWS V14.01,2013-10-06 01:55:00,
2013-10-05 22:00:00,67.3,65.5,29.84,South,178,0.0,1.2,94,0.00,,,0.07,VWS V14.01,2013-10-06 02:00:00,
2013-10-05 22:05:00,67.3,65.5,29.84,West,280,5.9,5.9,94,0.00,,,0.07,VWS V14.01,2013-10-06 02:05:00,
2013-10-05 22:10:00,67.3,65.5,29.84,WNW,290,0.0,1.2,94,0.02,,,0.09,VWS V14.01,2013-10-06 02:10:00,
2013-10-05 22:15:00,67.3,65.5,29.84,SW,229,1.2,3.5,94,0.13,,,0.20,VWS V14.01,2013-10-06 02:15:00,
2013-10-05 22:20:00,67.3,65.5,29.85,South,185,7.1,9.4,94,0.22,,,0.29,VWS V14.01,2013-10-06 02:20:00,
2013-10-05 22:25:00,67.1,65.6,29.83,SE,146,8.3,9.4,95,0.34,,,0.41,VWS V14.01,2013-10-06 02:25:00,
2013-10-05 22:30:00,67.1,65.6,29.83,SSE,166,1.2,8.3,95,0.36,,,0.43,VWS V14.01,2013-10-06 02:30:00,
2013-10-05 22:35:00,66.9,65.4,29.83,SSW,202,4.7,10.6,95,0.36,,,0.43,VWS V14.01,2013-10-06 02:35:00,
2013-10-05 22:40:00,66.8,65.3,29.83,South,171,2.4,7.1,95,0.36,,-RA,0.43,VWS V14.01,2013-10-06 02:40:00,
2013-10-05 22:45:00,66.6,65.1,29.82,SSE,147,1.2,7.1,95,0.36,,-RA,0.43,VWS V14.01,2013-10-06 02:45:00,
2013-10-05 22:50:00,66.4,64.9,29.82,SSE,158,1.2,7.1,95,0.36,,-RA,0.43,VWS V14.01,2013-10-06 02:50:00,
2013-10-05 22:55:00,66.3,64.8,29.82,SE,137,5.9,7.1,95,0.36,,-RA,0.43,VWS V14.01,2013-10-06 02:55:00,
2013-10-05 23:00:00,66.1,64.6,29.82,South,186,5.9,5.9,95,0.36,,-RA,0.43,VWS V14.01,2013-10-06 03:00:00,
2013-10-05 23:05:00,66.1,64.6,29.82,South,184,2.4,5.9,95,0.36,,-RA,0.43,VWS V14.01,2013-10-06 03:05:00,
2013-10-05 23:10:00,66.0,64.8,29.82,South,186,2.4,2.4,96,0.35,,-RA,0.43,VWS V14.01,2013-10-06 03:10:00,
2013-10-05 23:16:00,66.0,64.8,29.82,South,186,0.0,3.5,96,0.35,,-RA,0.43,VWS V14.01,2013-10-06 03:16:00,
2013-10-05 23:20:00,67.3,65.5,29.85,SSW,197,3.5,7.1,94,0.20,,OVC041,0.27,VWS V14.01,2013-10-06 03:20:00,
2013-10-05 23:21:00,66.0,64.8,29.81,South,186,0.0,1.2,96,0.16,,-RA,0.43,VWS V14.01,2013-10-06 03:21:00,
2013-10-05 23:25:00,66.0,64.8,29.82,SSW,209,2.4,3.5,96,0.16,,-RA,0.43,VWS V14.01,2013-10-06 03:25:00,
2013-10-05 23:30:00,66.0,64.8,29.82,South,182,0.0,0.0,96,0.00,,-RA,0.43,VWS V14.01,2013-10-06 03:30:00,
2013-10-05 23:35:00,66.1,64.9,29.81,South,190,0.0,5.9,96,0.00,,-RA,0.43,VWS V14.01,2013-10-06 03:35:00,
2013-10-05 23:40:00,66.1,64.9,29.81,South,191,2.4,2.4,96,0.00,,OVC110,0.43,VWS V14.01,2013-10-06 03:40:00,
2013-10-05 23:45:00,66.1,65.2,29.82,South,191,0.0,2.4,97,0.00,,OVC110,0.43,VWS V14.01,2013-10-06 03:45:00,
2013-10-05 23:50:00,66.3,65.4,29.82,SSW,192,0.0,3.5,97,0.00,,OVC110,0.43,VWS V14.01,2013-10-06 03:50:00,
2013-10-05 23:56:00,66.3,65.4,29.82,SSW,192,0.0,3.5,97,0.00,,OVC110,0.43,VWS V14.01,2013-10-06 03:56:00,